• In Deutschland
  • Länderverzeichnis
  • Für 7 Tage
  • Wassertemperatur
  • Satellitenkarten
  • Wetterkarte
  • Widgets
  • user-avatar
    Anmelden

    Stündliche Wetter Kolotovino

    Heute, 18 August, Samstag

    Zeit Temperatur Niederschläge Wind Luftdruck Luftfeuchtigkeit
    00:00 +16°C° 0 mm 3 m/S 751 mmHg 87%
    01:00 +16°C° 0 mm 3 m/S 751 mmHg 88%
    02:00 +16°C° 0 mm 2 m/S 752 mmHg 90%
    03:00 +14°C° 0 mm 3 m/S 752 mmHg 90%
    04:00 +14°C° 0 mm 3 m/S 752 mmHg 91%
    05:00 +14°C° 0 mm 3 m/S 752 mmHg 91%
    06:00 +16°C° 0 mm 3 m/S 752 mmHg 86%
    07:00 +18°C° 0 mm 3 m/S 752 mmHg 82%
    08:00 +20°C° 0 mm 3 m/S 752 mmHg 77%
    09:00 +21°C° 0 mm 3 m/S 752 mmHg 73%
    10:00 +24°C° 0 mm 3 m/S 752 mmHg 68%
    11:00 +25°C° 0 mm 4 m/S 752 mmHg 64%
    12:00 +25°C° 0 mm 4 m/S 751 mmHg 63%
    13:00 +26°C° 0 mm 4 m/S 751 mmHg 61%
    14:00 +26°C° 0 mm 4 m/S 751 mmHg 60%
    15:00 +26°C° 0,1 mm 3 m/S 751 mmHg 63%
    16:00 +26°C° 0,1 mm 3 m/S 751 mmHg 67%
    17:00 +25°C° 0,1 mm 3 m/S 751 mmHg 70%
    18:00 +24°C° 0 mm 3 m/S 751 mmHg 74%
    19:00 +21°C° 0 mm 3 m/S 751 mmHg 78%
    20:00 +20°C° 0 mm 3 m/S 751 mmHg 81%
    21:00 +19°C° 0 mm 3 m/S 751 mmHg 81%
    22:00 +18°C° 0 mm 3 m/S 751 mmHg 82%
    23:00 +18°C° 0 mm 3 m/S 751 mmHg 82%

    Morgen, 19 August, Sonntag

    Zeit Temperatur Niederschläge Wind Luftdruck Luftfeuchtigkeit
    00:00 +17°C° 0 mm 3 m/S 751 mmHg 82%
    01:00 +17°C° 0 mm 3 m/S 751 mmHg 83%
    02:00 +17°C° 0 mm 3 m/S 751 mmHg 84%
    03:00 +16°C° 0 mm 3 m/S 751 mmHg 85%
    04:00 +16°C° 0 mm 3 m/S 751 mmHg 86%
    05:00 +16°C° 0 mm 3 m/S 751 mmHg 87%
    06:00 +17°C° 0 mm 3 m/S 751 mmHg 84%
    07:00 +19°C° 0 mm 3 m/S 751 mmHg 81%
    08:00 +20°C° 0 mm 4 m/S 751 mmHg 77%
    09:00 +21°C° 0 mm 4 m/S 750 mmHg 74%
    10:00 +23°C° 0 mm 4 m/S 750 mmHg 70%
    11:00 +25°C° 0 mm 4 m/S 750 mmHg 67%
    12:00 +26°C° 0,3 mm 4 m/S 750 mmHg 66%
    13:00 +26°C° 0,3 mm 4 m/S 750 mmHg 65%
    14:00 +27°C° 0,3 mm 4 m/S 749 mmHg 65%
    15:00 +26°C° 0,4 mm 4 m/S 749 mmHg 68%
    16:00 +26°C° 0,4 mm 3 m/S 749 mmHg 72%
    17:00 +26°C° 0,4 mm 3 m/S 749 mmHg 76%
    18:00 +24°C° 0,3 mm 2 m/S 749 mmHg 80%
    19:00 +23°C° 0,3 mm 2 m/S 749 mmHg 85%
    20:00 +20°C° 0,3 mm 2 m/S 749 mmHg 90%
    21:00 +19°C° 0,4 mm 2 m/S 749 mmHg 90%
    22:00 +19°C° 0,4 mm 2 m/S 749 mmHg 91%
    23:00 +18°C° 0,4 mm 2 m/S 749 mmHg 91%

    übermorgen, 20 August, Montag

    Zeit Temperatur Niederschläge Wind Luftdruck Luftfeuchtigkeit
    00:00 +17°C° 0 mm 2 m/S 749 mmHg 90%
    01:00 +16°C° 0 mm 2 m/S 749 mmHg 90%
    02:00 +16°C° 0 mm 2 m/S 749 mmHg 89%
    03:00 +15°C° 0 mm 1 m/S 749 mmHg 89%
    04:00 +15°C° 0 mm 1 m/S 749 mmHg 89%
    05:00 +15°C° 0 mm 1 m/S 749 mmHg 89%
    06:00 +16°C° 0 mm 1 m/S 749 mmHg 86%
    07:00 +19°C° 0 mm 1 m/S 749 mmHg 82%
    08:00 +20°C° 0 mm 1 m/S 749 mmHg 78%
    09:00 +22°C° 0 mm 1 m/S 749 mmHg 73%
    10:00 +23°C° 0 mm 1 m/S 749 mmHg 68%
    11:00 +25°C° 0 mm 2 m/S 749 mmHg 63%
    12:00 +25°C° 0 mm 2 m/S 749 mmHg 62%
    13:00 +25°C° 0 mm 2 m/S 748 mmHg 61%
    14:00 +26°C° 0 mm 2 m/S 748 mmHg 60%
    15:00 +26°C° 0 mm 2 m/S 748 mmHg 63%
    16:00 +26°C° 0 mm 2 m/S 747 mmHg 66%
    17:00 +25°C° 0 mm 2 m/S 747 mmHg 68%
    18:00 +24°C° 0 mm 2 m/S 747 mmHg 73%
    19:00 +22°C° 0 mm 1 m/S 747 mmHg 78%
    20:00 +20°C° 0 mm 1 m/S 747 mmHg 83%
    21:00 +20°C° 0 mm 1 m/S 747 mmHg 84%
    22:00 +18°C° 0 mm 2 m/S 746 mmHg 85%
    23:00 +18°C° 0 mm 2 m/S 746 mmHg 85%

    21 August, Dienstag

    Zeit Temperatur Niederschläge Wind Luftdruck Luftfeuchtigkeit
    00:00 +18°C° 0 mm 2 m/S 746 mmHg 86%
    01:00 +17°C° 0 mm 2 m/S 746 mmHg 86%
    02:00 +17°C° 0 mm 3 m/S 745 mmHg 86%
    03:00 +17°C° 0 mm 3 m/S 745 mmHg 85%
    04:00 +17°C° 0 mm 3 m/S 745 mmHg 85%
    05:00 +17°C° 0 mm 3 m/S 745 mmHg 84%
    06:00 +18°C° 0 mm 4 m/S 744 mmHg 81%
    07:00 +20°C° 0 mm 5 m/S 744 mmHg 77%
    08:00 +21°C° 0 mm 5 m/S 744 mmHg 73%
    09:00 +22°C° 0,4 mm 6 m/S 744 mmHg 73%
    10:00 +23°C° 0,4 mm 6 m/S 744 mmHg 72%
    11:00 +24°C° 0,4 mm 6 m/S 743 mmHg 72%
    12:00 +24°C° 0,7 mm 6 m/S 743 mmHg 72%
    13:00 +24°C° 0,7 mm 7 m/S 743 mmHg 73%
    14:00 +24°C° 0,7 mm 7 m/S 743 mmHg 73%
    15:00 +23°C° 0,4 mm 6 m/S 743 mmHg 75%
    16:00 +22°C° 0,4 mm 5 m/S 744 mmHg 76%
    17:00 +21°C° 0,4 mm 4 m/S 744 mmHg 78%
    18:00 +20°C° 0 mm 4 m/S 744 mmHg 79%
    19:00 +18°C° 0 mm 4 m/S 745 mmHg 81%
    20:00 +17°C° 0 mm 3 m/S 746 mmHg 83%
    21:00 +16°C° 0 mm 3 m/S 746 mmHg 83%
    22:00 +14°C° 0 mm 3 m/S 747 mmHg 82%
    23:00 +13°C° 0 mm 3 m/S 747 mmHg 82%

    22 August, Mittwoch

    Zeit Temperatur Niederschläge Wind Luftdruck Luftfeuchtigkeit
    00:00 +13°C° 0 mm 3 m/S 748 mmHg 82%
    01:00 +12°C° 0 mm 3 m/S 748 mmHg 83%
    02:00 +11°C° 0 mm 3 m/S 748 mmHg 83%
    03:00 +11°C° 0 mm 3 m/S 749 mmHg 85%
    04:00 +10°C° 0 mm 3 m/S 749 mmHg 87%
    05:00 +10°C° 0 mm 3 m/S 750 mmHg 88%
    06:00 +11°C° 0 mm 4 m/S 750 mmHg 84%
    07:00 +12°C° 0 mm 4 m/S 751 mmHg 80%
    08:00 +13°C° 0 mm 4 m/S 751 mmHg 76%
    09:00 +15°C° 0 mm 4 m/S 752 mmHg 71%
    10:00 +17°C° 0 mm 4 m/S 752 mmHg 66%
    11:00 +18°C° 0 mm 4 m/S 752 mmHg 61%
    12:00 +18°C° 0 mm 4 m/S 752 mmHg 60%
    13:00 +19°C° 0 mm 4 m/S 752 mmHg 58%
    14:00 +20°C° 0 mm 4 m/S 753 mmHg 57%
    15:00 +19°C° 0 mm 4 m/S 753 mmHg 59%
    16:00 +19°C° 0 mm 3 m/S 753 mmHg 62%
    17:00 +19°C° 0 mm 3 m/S 753 mmHg 64%
    18:00 +17°C° 0 mm 2 m/S 753 mmHg 68%
    19:00 +15°C° 0 mm 2 m/S 753 mmHg 72%
    20:00 +13°C° 0 mm 1 m/S 754 mmHg 76%
    21:00 +13°C° 0 mm 1 m/S 754 mmHg 77%
    22:00 +12°C° 0 mm 1 m/S 754 mmHg 78%
    23:00 +12°C° 0 mm 1 m/S 754 mmHg 79%

    23 August, Donnerstag

    Zeit Temperatur Niederschläge Wind Luftdruck Luftfeuchtigkeit
    00:00 +11°C° 0 mm 1 m/S 754 mmHg 80%
    01:00 +10°C° 0 mm 0 m/S 755 mmHg 81%
    02:00 +10°C° 0 mm 0 m/S 755 mmHg 82%
    03:00 +9°C° 0 mm 0 m/S 755 mmHg 82%
    04:00 +9°C° 0 mm 0 m/S 755 mmHg 82%
    05:00 +9°C° 0 mm 0 m/S 755 mmHg 83%
    06:00 +11°C° 0 mm 0 m/S 755 mmHg 77%
    07:00 +14°C° 0 mm 1 m/S 755 mmHg 72%
    08:00 +16°C° 0 mm 1 m/S 755 mmHg 66%
    09:00 +18°C° 0 mm 1 m/S 755 mmHg 62%
    10:00 +20°C° 0 mm 1 m/S 755 mmHg 58%
    11:00 +20°C° 0 mm 2 m/S 754 mmHg 53%
    12:00 +20°C° 0 mm 2 m/S 754 mmHg 52%
    13:00 +21°C° 0 mm 2 m/S 754 mmHg 50%
    14:00 +21°C° 0 mm 2 m/S 754 mmHg 49%
    15:00 +22°C° 0 mm 1 m/S 753 mmHg 52%
    16:00 +22°C° 0 mm 1 m/S 753 mmHg 56%
    17:00 +22°C° 0 mm 1 m/S 753 mmHg 59%
    18:00 +20°C° 0 mm 1 m/S 752 mmHg 63%
    19:00 +18°C° 0 mm 1 m/S 752 mmHg 67%
    20:00 +15°C° 0 mm 1 m/S 752 mmHg 72%
    21:00 +14°C° 0 mm 1 m/S 752 mmHg 73%
    22:00 +14°C° 0 mm 2 m/S 752 mmHg 75%
    23:00 +13°C° 0 mm 2 m/S 752 mmHg 77%
    Mehr zeigen